This demonstration page uses our WeatherBlox Daily Observations layout. Learn more.

Left ArrowRight Arrow

34.16533, -84.80231

Hourly Observations for October 7, 2020

Temp ( °F °C ) Dew Point ( °F °C ) Humidity (%) Winds ( mph kmh ) Pressure ( in mb ) Visibility ( mi km ) Precip ( " mm )
12:53 am 00:53 Clear 57 13.9 55 12.8 93 93 Calm 30.09 1019 10 16 0.00 0.00
1:53 am 01:53 Clear 56 13.3 54 12.2 93 93 Calm 30.08 1019 10 16 0.00 0.00
2:53 am 02:53 Clear 57 13.9 54 12.2 90 90 Calm 30.06 1018 10 16 0.00 0.00
3:53 am 03:53 Clear with Mist and Fog 55 12.8 53 11.7 93 93 Calm 30.05 1018 6 10 0.00 0.00
4:53 am 04:53 Clear 55 12.8 53 11.7 93 93 Calm 30.05 1018 10 16 0.00 0.00
5:53 am 05:53 Clear 55 12.8 53 11.7 93 93 Calm 30.06 1018 8 13 0.00 0.00
6:24 am 06:24 Partly Cloudy 54 12.2 52 11.1 93 93 Calm 30.09 1019 9 14 0.00 0.00
6:33 am 06:33 Mostly Cloudy 53 11.7 51 10.6 93 93 Calm 30.09 1019 7 11 0.00 0.00
6:39 am 06:39 Mostly Cloudy with Mist and Fog 54 12.2 52 11.1 93 93 Calm 30.09 1019 2 3 0.00 0.00
6:50 am 06:50 Mostly Cloudy with Fog 55 13 54 12 94 94 Calm 30.10 1019 1 1 0.00 0.00
6:53 am 06:53 Mostly Cloudy with Fog 55 12.8 53 11.7 93 93 Calm 30.07 1018 1 1 0.00 0.00
7:05 am 07:05 Cloudy with Mist and Fog 55 12.8 53 11.7 93 93 Calm 30.10 1019 2 2 0.00 0.00
7:17 am 07:17 Mostly Cloudy with Mist and Fog 54 12.2 52 11.1 93 93 Calm 30.11 1020 3 5 0.00 0.00
7:29 am 07:29 Mostly Clear 54 12.2 52 11.1 93 93 Calm 30.11 1020 7 11 0.00 0.00
7:53 am 07:53 Sunny 54 12.2 52 11.1 93 93 Calm 30.10 1019 8 13 0.00 0.00
8:53 am 08:53 Sunny 59 15 55 12.8 87 87 Calm 30.11 1020 10 16 0.00 0.00
9:53 am 09:53 Sunny 65 18.3 59 15 81 81 Calm 30.11 1020 10 16 0.00 0.00
10:53 am 10:53 Sunny 70 21.1 61 16.1 73 73 Calm 30.11 1020 10 16 0.00 0.00
11:53 am 11:53 Sunny 74 23.3 61 16.1 64 64 VRB 5 7 30.10 1019 10 16 0.00 0.00
12:53 pm 12:53 Sunny 78 25.6 59 15 52 52 Calm 30.10 1019 10 16 0.00 0.00
1:53 pm 13:53 Sunny 80 26.7 58 14.4 47 47 VRB 3 6 30.08 1019 10 16 0.00 0.00
2:53 pm 14:53 Sunny 83 28.3 57 13.9 41 41 VRB 3 6 30.04 1017 10 16 0.00 0.00
3:53 pm 15:53 Sunny 82 27.8 56 13.3 41 41 VRB 3 6 30.03 1017 10 16 0.00 0.00
4:53 pm 16:53 Sunny 83 28.3 55 12.8 38 38 VRB 3 6 30.02 1017 10 16 0.00 0.00
5:53 pm 17:53 Sunny 80 26.7 56 13.3 44 44 Calm 30.02 1017 10 16 0.00 0.00
6:53 pm 18:53 Sunny 69 20.6 61 16.1 76 76 Calm 30.03 1017 10 16 0.00 0.00
7:53 pm 19:53 Clear 64 17.8 60 15.6 87 87 Calm 30.04 1017 10 16 0.00 0.00
8:53 pm 20:53 Clear 63 17.2 59 15 87 87 Calm 30.04 1017 10 16 0.00 0.00
9:53 pm 21:53 Clear 61 16.1 58 14.4 90 90 Calm 30.06 1018 10 16 0.00 0.00
10:53 pm 22:53 Clear 60 15.6 57 13.9 90 90 Calm 30.07 1018 10 16 0.00 0.00
11:53 pm 23:53 Clear 58 14.4 55 12.8 90 90 Calm 30.07 1018 8 13 0.00 0.00

Powered by AerisWeather